Nacogdoches, TX

7:14 AM CDT on October 01, 2016 (GMT -0500)
Mangham Regional

Weather History for KOCH - September, 2013

Change the Weather History Date:

Saturday, September 28, 2013

  Actual Average Record
Temperature  
Mean Temperature 76 °F -  
Max Temperature 87 °F 82 °F 96 °F (2011)
Min Temperature 66 °F 58 °F 44 °F (2000)
Cooling Degree Days 12    
Growing Degree Days 26 (Base 50)    
Moisture  
Dew Point 69 °F    
Average Humidity 80    
Maximum Humidity 94    
Minimum Humidity 49    
Precipitation  
Precipitation 0.07 in - - ()
Sea Level Pressure  
Sea Level Pressure 29.98 in    
Wind  
Wind Speed 5 mph (SSE)    
Max Wind Speed 13 mph    
Max Gust Speed 18 mph    
Visibility 9 miles    
Events Thunderstorm    
Averages and records for this station are not official NWS values.
T = Trace of Precipitation, MM = Missing Value Source: NWS Daily Summary

Daily Weather History Graph

Daily Weather History Graph

Search for Another Location

Airport or City:

Trip Planner

Search our weather history database for the weather conditions in past years. The results will help you decide how hot, cold, wet, or windy it might be!

Date:

Astronomy

Sep. 28, 2013 Rise Set
Actual Time 7:10 AM CDT 7:07 PM CDT
Civil Twilight 6:46 AM CDT 7:31 PM CDT
Nautical Twilight 6:18 AM CDT 7:59 PM CDT
Astronomical Twilight 5:50 AM CDT 8:28 PM CDT
Moon 1:18 AM CDT (9/28) 3:09 PM CDT (9/28)
Length of Visible Light 12h 44m
Length of Day
11h 56m
Waning Crescent, 36% of the Moon is Illuminated
Sep 28
Waning Crescent
Oct 4
New
Oct 11
First Quarter
Oct 18
Full
Oct 26
Last Quarter

Hourly Weather History & Observations

Time (CDT) Temp. Heat Index Dew Point Humidity Pressure Visibility Wind Dir Wind Speed Gust Speed Precip Events Conditions
12:15 AM 73.4 °F - 66.2 °F 78% 29.95 in 10.0 mi SSE 6.9 mph - N/A   Clear
12:35 AM 73.4 °F - 66.2 °F 78% 29.95 in 10.0 mi SE 5.8 mph - N/A   Clear
12:55 AM 73.4 °F - 64.4 °F 73% 29.95 in 10.0 mi SSE 3.5 mph - N/A   Clear
1:15 AM 71.6 °F - 66.2 °F 83% 29.95 in 10.0 mi SSE 4.6 mph - N/A   Clear
1:35 AM 71.6 °F - 64.4 °F 78% 29.95 in 10.0 mi Calm Calm - N/A   Clear
1:55 AM 69.8 °F - 64.4 °F 83% 29.95 in 10.0 mi Calm Calm - N/A   Clear
2:15 AM 69.8 °F - 64.4 °F 83% 29.95 in 10.0 mi SE 4.6 mph - N/A   Clear
2:35 AM 71.6 °F - 66.2 °F 83% 29.95 in 10.0 mi SSE 4.6 mph - N/A   Clear
2:55 AM 69.8 °F - 66.2 °F 88% 29.95 in 10.0 mi SE 4.6 mph - N/A   Clear
3:15 AM 69.8 °F - 64.4 °F 83% 29.95 in 10.0 mi Calm Calm - N/A   Clear
3:35 AM 68.0 °F - 64.4 °F 88% 29.95 in 8.0 mi Calm Calm - N/A   Clear
3:55 AM 68.0 °F - 64.4 °F 88% 29.95 in 10.0 mi Calm Calm - N/A   Clear
4:15 AM 66.2 °F - 64.4 °F 94% 29.95 in 10.0 mi Calm Calm - N/A   Clear
4:35 AM 68.0 °F - 64.4 °F 88% 29.96 in 10.0 mi SE 3.5 mph - N/A   Clear
4:55 AM 69.8 °F - 66.2 °F 88% 29.96 in 10.0 mi SE 4.6 mph - N/A   Clear
5:15 AM 68.0 °F - 64.4 °F 88% 29.98 in 10.0 mi Calm Calm - N/A   Clear
5:35 AM 66.2 °F - 64.4 °F 94% 29.98 in 9.0 mi Calm Calm - N/A   Clear
5:55 AM 68.0 °F - 66.2 °F 94% 29.98 in 10.0 mi SE 3.5 mph - N/A   Clear
6:15 AM 69.8 °F - 66.2 °F 88% 29.98 in 10.0 mi ESE 5.8 mph - N/A   Clear
6:35 AM 69.8 °F - 66.2 °F 88% 29.98 in 10.0 mi SSE 4.6 mph - N/A   Clear
6:55 AM 68.0 °F - 66.2 °F 94% 29.99 in 10.0 mi Calm Calm - N/A   Clear
7:15 AM 69.8 °F - 66.2 °F 88% 30.00 in 10.0 mi SE 4.6 mph - N/A   Clear
7:35 AM 69.8 °F - 66.2 °F 88% 30.00 in 10.0 mi ESE 4.6 mph - N/A   Clear
7:55 AM 69.8 °F - 68.0 °F 94% 30.01 in 10.0 mi SE 4.6 mph - N/A   Clear
8:15 AM 71.6 °F - 68.0 °F 88% 30.01 in 10.0 mi ESE 4.6 mph - N/A   Mostly Cloudy
8:35 AM 73.4 °F - 69.8 °F 88% 30.02 in 10.0 mi SE 8.1 mph - N/A   Overcast
8:55 AM 73.4 °F - 69.8 °F 88% 30.02 in 10.0 mi SE 5.8 mph - N/A   Overcast
9:15 AM 73.4 °F - 69.8 °F 88% 30.02 in 10.0 mi SE 5.8 mph - N/A   Mostly Cloudy
9:35 AM 77.0 °F - 69.8 °F 78% 30.02 in 10.0 mi SE 6.9 mph - N/A   Mostly Cloudy
9:55 AM 78.8 °F - 69.8 °F 74% 30.03 in 10.0 mi SSE 6.9 mph - N/A   Mostly Cloudy
10:15 AM 80.6 °F 84.6 °F 71.6 °F 74% 30.02 in 10.0 mi SSE 11.5 mph 17.3 mph N/A   Partly Cloudy
10:35 AM 82.4 °F 87.2 °F 71.6 °F 70% 30.03 in 10.0 mi SSE 9.2 mph - N/A   Clear
10:55 AM 82.4 °F 87.2 °F 71.6 °F 70% 30.02 in 10.0 mi South 9.2 mph - N/A   Partly Cloudy
11:15 AM 84.2 °F 87.3 °F 68.0 °F 58% 30.02 in 10.0 mi South 11.5 mph 16.1 mph N/A   Partly Cloudy
11:35 AM 86.0 °F 89.4 °F 68.0 °F 55% 30.02 in 10.0 mi South 12.7 mph - N/A   Clear
11:55 AM 86.0 °F 89.4 °F 68.0 °F 55% 30.01 in 10.0 mi SSE 10.4 mph - N/A   Clear
12:15 PM 87.8 °F 90.4 °F 66.2 °F 49% 30.01 in 10.0 mi SSW 10.4 mph 18.4 mph N/A   Partly Cloudy
12:35 PM 87.8 °F 92.6 °F 69.8 °F 55% 30.01 in 10.0 mi South 8.1 mph - N/A   Mostly Cloudy
12:55 PM 87.8 °F 92.6 °F 69.8 °F 55% 30.00 in 10.0 mi South 9.2 mph - N/A   Mostly Cloudy
1:15 PM 87.8 °F 92.6 °F 69.8 °F 55% 29.99 in 10.0 mi SE 8.1 mph - N/A   Mostly Cloudy
1:35 PM 87.8 °F 92.6 °F 69.8 °F 55% 29.98 in 10.0 mi SSE 9.2 mph - N/A   Overcast
1:55 PM 87.8 °F 92.6 °F 69.8 °F 55% 29.97 in 10.0 mi SE 11.5 mph - N/A   Overcast
2:15 PM 87.8 °F 92.6 °F 69.8 °F 55% 29.96 in 10.0 mi SE 5.8 mph - N/A   Mostly Cloudy
2:35 PM 87.8 °F 92.6 °F 69.8 °F 55% 29.95 in 10.0 mi South 9.2 mph - N/A   Mostly Cloudy
2:55 PM 87.8 °F 92.6 °F 69.8 °F 55% 29.95 in 10.0 mi SE 10.4 mph - N/A   Overcast
3:15 PM 87.8 °F 92.6 °F 69.8 °F 55% 29.95 in 10.0 mi SSE 10.4 mph - N/A   Overcast
3:35 PM 87.8 °F 93.8 °F 71.6 °F 58% 29.94 in 10.0 mi SSE 12.7 mph 16.1 mph N/A   Overcast
3:55 PM 87.8 °F 92.6 °F 69.8 °F 55% 29.93 in 10.0 mi SE 10.4 mph - N/A   Scattered Clouds
4:15 PM 86.0 °F 90.4 °F 69.8 °F 58% 29.94 in 10.0 mi South 10.4 mph - N/A   Mostly Cloudy
4:35 PM 84.2 °F 89.6 °F 71.6 °F 66% 29.93 in 10.0 mi SSE 10.4 mph - N/A   Mostly Cloudy
4:55 PM 84.2 °F 89.6 °F 71.6 °F 66% 29.93 in 10.0 mi SSE 8.1 mph - N/A   Partly Cloudy
5:15 PM 82.4 °F 87.2 °F 71.6 °F 70% 29.95 in 10.0 mi SSE 6.9 mph - N/A Thunderstorm Mostly Cloudy
5:35 PM 78.8 °F - 73.4 °F 83% 29.94 in 10.0 mi ESE 4.6 mph - 0.01 in Thunderstorm Thunderstorm
5:55 PM 78.8 °F - 75.2 °F 89% 29.95 in 8.0 mi Calm Calm - 0.02 in   Overcast
6:15 PM 77.0 °F - 73.4 °F 89% 29.96 in 10.0 mi WNW 3.5 mph - 0.01 in   Overcast
6:35 PM 77.0 °F - 73.4 °F 89% 29.96 in 9.0 mi Calm Calm - 0.01 in   Overcast
6:55 PM 77.0 °F - 75.2 °F 94% 29.96 in 9.0 mi Calm Calm - 0.01 in   Overcast
7:15 PM 77.0 °F - 75.2 °F 94% 29.97 in 6.0 mi Calm Calm - N/A   Overcast
7:35 PM 77.0 °F - 75.2 °F 94% 29.97 in 5.0 mi Calm Calm - 0.03 in   Overcast
7:55 PM 75.2 °F - 73.4 °F 94% 29.98 in 7.0 mi Calm Calm - 0.03 in   Mostly Cloudy
8:15 PM 75.2 °F - 73.4 °F 94% 29.99 in 7.0 mi Calm Calm - N/A   Mostly Cloudy
8:35 PM 75.2 °F - 73.4 °F 94% 30.00 in 7.0 mi Calm Calm - N/A   Overcast
8:55 PM 75.2 °F - 73.4 °F 94% 30.00 in 5.0 mi Calm Calm - N/A   Overcast
9:15 PM 75.2 °F - 73.4 °F 94% 30.00 in 5.0 mi Calm Calm - N/A   Overcast
9:35 PM 75.2 °F - 73.4 °F 94% 30.02 in 7.0 mi NNW 3.5 mph - N/A   Mostly Cloudy
9:55 PM 75.2 °F - 73.4 °F 94% 30.02 in 3.0 mi NW 3.5 mph - N/A   Overcast
10:15 PM 75.2 °F - 73.4 °F 94% 30.02 in 4.0 mi Calm Calm - N/A   Overcast
10:35 PM 75.2 °F - 73.4 °F 94% 30.02 in 8.0 mi Calm Calm - 0.01 in   Mostly Cloudy
10:55 PM 75.2 °F - 73.4 °F 94% 30.02 in 5.0 mi Calm Calm - 0.01 in   Overcast
11:15 PM 75.2 °F - 73.4 °F 94% 30.02 in 8.0 mi SSE 3.5 mph - N/A   Overcast
11:35 PM 75.2 °F - 73.4 °F 94% 30.02 in 9.0 mi Calm Calm - N/A   Overcast
11:55 PM 75.2 °F - 73.4 °F 94% 30.01 in 9.0 mi Calm Calm - N/A   Overcast